#timestamp,LO_Frequency,Hit,StdDev 
1506024015.9,286046997.9,N
1506024035.7,286046997.1,N
1506024055.5,286046995.0,Y
1506024075.4,286046996.7,P
1506024095.2,286046999.6,N
1506024115.0,286046996.8,N
1506024115.9,286046996.8,N
1506024135.8,286046996.7,N
1506024155.6,286046996.7,N
1506024175.4,286046999.4,N
1506024195.3,286046995.3,Y
1506024215.1,286046996.8,P
1506024216.0,286046996.8,P
1506024235.8,286046997.7,P
1506024255.7,286046994.9,Y
1506024275.5,286046998.7,P
1506024295.3,286046999.4,N
1506024315.2,286046998.4,N
1506024335.9,286047000.7,N
1506024355.7,286047000.7,N
1506024375.5,286046998.3,N
1506024395.4,286047000.4,N
1506024415.2,286047001.1,N
1506024435.0,286047000.8,N
1506024435.9,286047000.8,N
1506024455.8,286047000.9,N
1506024475.6,286047000.9,N
1506024495.4,286046999.7,N
1506024515.3,286047000.8,N
1506024535.1,286047001.0,N
1506024555.8,286046998.2,N
1506024575.7,286047002.3,N
1506024595.5,286047004.6,Y
1506024615.3,286047005.0,P
1506024635.2,286047010.0,P
1506024655.9,286047011.5,N
1506024675.7,286047014.5,Y
1506024695.6,286047012.0,P
1506024715.4,286047009.9,P
1506024735.2,286047009.6,P
1506024755.1,286047011.4,Y
1506024756.0,286047011.4,P
1506024775.8,286047005.7,P
1506024795.6,286047008.8,P
1506024815.5,286047006.2,Y
1506024835.3,286046997.7,P
1506024855.1,286046994.9,N
1506024875.9,286046994.9,N
1506024895.7,286046995.4,N
1506024915.5,286046997.7,N
1506024935.4,286046997.4,N
1506024955.2,286046999.1,N
1506024975.0,286046998.1,N
1506024975.9,286046998.1,N
1506024995.8,286047001.6,N
1506025015.6,286047000.2,N
1506025035.4,286047000.2,N
1506025055.2,286047000.0,N
1506025075.1,286047002.4,N
1506025076.0,286047002.4,N
1506025095.8,286046998.2,N
1506025115.6,286046996.6,N
1506025135.5,286047002.4,N
1506025155.3,286047000.5,N
1506025175.1,286047004.4,N
1506025195.9,286047001.9,N
1506025215.7,286046998.1,N
1506025235.5,286046999.1,N
1506025255.4,286047002.1,N
1506025275.2,286047003.8,N
1506025295.0,286047002.6,N
1506025295.9,286047002.6,N
1506025315.8,286047002.6,N
1506025335.6,286047002.2,N
1506025355.4,286047001.7,N
1506025375.2,286046999.9,N
1506025395.1,286047000.9,N
1506025396.0,286047000.9,N
1506025415.8,286046998.9,N
1506025435.6,286046996.6,N
1506025455.5,286046998.0,N
1506025475.3,286046994.9,N
1506025495.1,286046995.2,N
1506025515.9,286046995.8,N
1506025535.7,286046995.9,N
1506025555.5,286046994.6,N
1506025575.4,286046994.2,N
1506025595.2,286046992.1,N
1506025615.0,286046990.6,N
1506025615.9,286046990.6,N
1506025635.8,286046991.3,N
1506025655.6,286046989.3,N
1506025675.4,286046988.8,N
1506025695.3,286046989.4,N
1506025715.1,286046988.6,N
1506025716.0,286046988.6,N
1506025735.8,286046987.0,N
1506025755.7,286046989.1,N
1506025775.5,286046988.8,N
1506025795.3,286046988.3,N
1506025815.1,286046986.1,N
1506025835.9,286046985.2,N
1506025855.7,286046982.5,Y
1506025875.6,286046986.9,P
1506025895.4,286046991.5,N
1506025915.2,286046988.7,P
1506025935.1,286046987.2,Y
1506025936.0,286046987.2,P
1506025955.8,286046999.4,N
1506025975.6,286046999.5,N
1506025995.4,286046996.7,N
1506026015.3,286046993.8,N
1506026035.1,286046991.7,N
1506026055.8,286046994.4,N
1506026075.7,286046992.5,N
1506026095.5,286046992.6,N
1506026115.3,286046994.1,N
1506026135.2,286046996.0,N
1506026155.9,286046996.2,N
1506026175.7,286046995.9,N
1506026195.6,286046996.1,N
1506026215.4,286046997.9,N
1506026235.2,286046997.6,N
1506026255.0,286046995.5,N
1506026256.0,286046995.5,N
1506026275.8,286046995.3,N
1506026295.6,286046995.6,N
1506026315.4,286046993.3,N
1506026335.3,286046995.5,N
1506026355.1,286046996.2,N
1506026375.8,286046996.3,N
1506026395.7,286046996.0,N
1506026415.5,286046996.3,N
1506026435.3,286046995.0,N
1506026455.2,286046997.2,N
1506026475.9,286046995.1,N
1506026495.7,286046997.6,N
1506026515.6,286046996.2,N
1506026535.4,286046997.5,N
1506026555.2,286046995.5,N
1506026575.1,286046995.2,Y
1506026576.0,286046995.2,P
1506026595.8,286047002.3,P
1506026615.6,286047000.5,N
1506026635.4,286046998.2,N
1506026655.3,286047002.7,N
1506026675.1,286047002.3,N
1506026695.8,286046999.8,N
1506026715.7,286046999.3,N
1506026735.5,286046997.1,N
1506026755.3,286046999.0,N
1506026775.2,286046996.7,N
1506026795.9,286046998.3,N
1506026815.7,286046999.3,N
1506026835.6,286046997.6,N
1506026855.4,286046988.3,Y
1506026875.2,286046991.4,P
1506026895.1,286046991.9,N
1506026896.0,286046991.9,N
1506026915.8,286046998.5,N
1506026935.6,286047000.2,N
1506026955.5,286047003.5,N
1506026975.3,286047003.7,N
1506026995.1,286047004.6,N
1506027015.9,286047010.0,N
1506027035.7,286047011.4,N
1506027055.5,286047015.6,N
1506027075.3,286047013.3,N
1506027095.2,286047017.3,N
1506027115.0,286047023.2,N
1506027115.9,286047023.2,N
1506027135.7,286047019.3,N
1506027155.6,286047020.5,N
1506027175.4,286047021.5,N
1506027195.2,286047023.1,N
1506027215.1,286047022.8,N
1506027216.0,286047022.8,N
1506027235.8,286047022.3,N
1506027255.6,286047023.1,N
1506027275.5,286047018.9,N
1506027295.3,286047017.7,N
1506027315.1,286047017.6,N
1506027335.9,286047023.5,N
1506027355.7,286047023.6,N
1506027375.5,286047022.2,N
1506027395.3,286047026.1,N
1506027415.2,286047027.9,N
1506027435.0,286047029.9,N
1506027435.9,286047029.9,Y
1506027455.8,286047013.0,P
1506027475.6,286047013.3,P
1506027495.4,286047010.1,P
1506027515.3,286047013.5,Y
1506027535.1,286047000.6,P
1506027536.0,286047000.6,N
1506027555.8,286046999.6,N
1506027575.7,286046992.1,N
1506027595.5,286046994.5,N
